STARLINK-32379, 61851

Orbit data source: Space-Track

STARLINK-32379, 61851 is a payload satellite owned by SpaceX/Seattle (US) in LEO that was launched on Thu, 07 Nov 2024 UTC via an FALCON 9 launch vehicle from the Air Force Eastern Test Range (AFETR). Payload-class satellites include a variety of spacecraft equipped with specific instruments for various scientific and technological missions. These include communications satellites like Starlink; space stations such as the ISS; scientific satellites like the Hubble; Earth observation satellites from companies like Planet Labs, Umbra, and HawkEye 360; GPS; miniature CubeSats for education and research; and military/defense satellites.

Loading next visibility...
Identifier
61851, 2024-202G
Orbit
LEO
Last TLE update
19 hours ago
Origin
Manufacturer
SpaceX/Seattle
Mission
Operational Commercial Communications
Bus & Motor
STARLINK V2M, Unknown motor
Mass
730 kg wet, ~700 kg dry
Launch date (UTC)
2024-11-07 (8 months ago)
Launch vehicle
FALCON 9
Launch site
Air Force Eastern Test Range (AFETR)
Object type
Payload
Rocket body
Debris
Shape & HBR
Box + 2 Pan, 29 m
Radar Cross Section
33.884 m², Large (>1 m²)

Expand to show TLE details & history

TLE from 19 hours ago
0 STARLINK-32379
1 61851U 24202G   25181.46008369  .00003326  00000-0  13040-3 0  9999
2 61851  42.9974 211.0952 0000867 292.2015  67.8745 15.27556031 36887
Epoch: 2025-06-30T11:02Z
TLE epoch observation values (Epoch: 2025-06-30T11:02:31.23Z)
Latitude
-0°
Longitude
126.6955°
Altitude
482.672 km
Speed
7.626 km/s
True Right ascension
14h 04m 22s
True Declination
0° 00' 00"
Sunlit
Object was in daylight at epoch
Visualization orbit readout
Latitude
-17.37387°
Longitude
102.79517°
Altitude
486.236 km
Speed
7.623 km/s
Apparent Right ascension
09h 39m 44s
Apparent Declination
-41° 09' 04"
Sunlit
Object is in daylight
Visualization observer readout
Local Sidereal Time
17:23:20
Azimuth
246.56° WSW
Elevation
-42.414°
Doppler factor
1
Orbital elements
Apogee altitude
485.661 km
Perigee altitude
484.471 km
Semi-major axis
6,863.203 km
Eccentricity
0.00009
Inclination
42.9974°
RAAN
211.0952°
Arg. of periapsis
292.2015°
True anomaly
Unknown
Mean anomaly
67.8745°
Eccentric anomaly
Unknown
Mean motion
3.81727 °/min
Orbital period
94.31 mins
BSTAR
0.0001304
Loading maneuver chart data...
Loading SW <> Apogee altitude chart data...
Loading historical data...
Loading historical data...
Loading historical data...
Loading historical data...
Loading historical data...
Loading historical data...
Loading historical data...

STARLINK-32379 Visibility forecast

Observer location: undefined°, undefined°

Span
Click to sort rows by Start time (UTC) header in descending order
Start Az.
Max El. time (UTC)
Max El. Az.
Max El.
End time (UTC)
End Az.
7 mins2025-07-01 06:06:39.341Z245.251° WSW2025-07-01 06:09:39.341Z223.715° SW42.356°2025-07-01 06:13:39.341Z73.225° E
6 mins2025-07-01 07:46:39.341Z284.565° WNW2025-07-01 07:49:39.341Z25.375° NE36.799°2025-07-01 07:52:39.341Z73.962° E
5 mins2025-07-01 09:26:39.341Z295.058° NW2025-07-01 09:28:39.341Z53.874° ENE43.071°2025-07-01 09:31:39.341Z99.73° ESE
4 mins2025-07-01 11:05:39.341Z253.659° W2025-07-01 11:07:39.341Z194.832° SSW26.866°2025-07-01 11:09:39.341Z154.742° SSE
6 mins2025-07-02 05:39:39.341Z243.51° WSW2025-07-02 05:42:39.341Z110.162° ESE43.472°2025-07-02 05:45:39.341Z73.707° E
|